Regional Weather Roundup
Issued by NWS

Home | Current Version | Previous Version | Graphics & Text | Print | Product List | Glossary On
Versions: 1 2 3 4 5 6 7 8 9 10 11 12 13 14 15 16 17 18 19 20 21 22 23 24 25 26 27 28 29 30 31 32 33 34 35 36 37 38 39 40 41 42 43 44 45 46 47 48 49 50
000
ASUS43 KFSD 280610
RWRSD

WEATHER ROUNDUP FOR SOUTH DAKOTA
NATIONAL WEATHER SERVICE SIOUX FALLS SD
100 AM CDT FRI AUG 28 2015

NOTE: "FAIR" INDICATES FEW OR NO CLOUDS BELOW 12,000 FEET WITH NO
SIGNIFICANT WEATHER AND/OR OBSTRUCTIONS TO VISIBILITY.


SDZ001>005-009-010-012>017-280700-
NORTHWEST AND NORTH CENTRAL SOUTH DAKOTA

CITY           SKY/WX    TMP DP  RH WIND       PRES   REMARKS
BUFFALO          N/A     64  56  75 S7        29.92S
FAITH            N/A     63  60  90 S9        29.97R
MOBRIDGE       CLEAR     61  61 100 CALM      29.92S
$$

SDZ012>016-024>037-041>051-057-063-072>074-280700-
SOUTHWEST AND SOUTH CENTRAL SOUTH DAKOTA

CITY           SKY/WX    TMP DP  RH WIND       PRES   REMARKS
RAPID CTY ARPT CLEAR     60  58  92 SE3       30.01F
PIERRE         CLOUDY    68  67  96 E3        29.91R
CUSTER         PTCLDY    63  49  60 SW7       30.14S
ELLSWORTH AFB  CLEAR     64  61  90 S6        29.99F
PHILIP         MOCLDY    61  60  97 W6        29.95F
PINE RIDGE     PTCLDY    54  52  93 CALM      30.03S
WINNER         CLOUDY    70  68  93 NE5       29.90F FOG
$$

SDZ004>011-016>023-039-040-280700-
NORTHEAST SOUTH DAKOTA

CITY           SKY/WX    TMP DP  RH WIND       PRES   REMARKS
ABERDEEN       PTCLDY    63  62  97 SE6       29.92S
WATERTOWN      FAIR      67  63  87 SE8       29.95S
BROOKINGS      CLOUDY    66  63  88 E10       29.99R
SISSETON         N/A     64  64 100 S6        29.92R
$$

SDZ017-020-022-023-036>040-048>070-280700-
SOUTHEAST SOUTH DAKOTA

CITY           SKY/WX    TMP DP  RH WIND       PRES   REMARKS
SIOUX FALLS    LGT RAIN  65  63  93 SE12      29.94F
HURON          CLOUDY    67  64  90 SE5       29.92S
CHAMBERLAIN    CLOUDY    65  65  99 E7        29.91S
MITCHELL       CLOUDY    67  66  97 SE7       29.91S
YANKTON        CLOUDY    64  63  94 E18G26    29.91F
$$

ABBREVIATIONS USED IN REMARKS
   TC - TEMPERATURE IN CELSIUS
  WCI - WIND CHILL INDEX
   HX - HEAT INDEX
  VSB - VISIBILITY




USA.gov is the U.S. government's official web portal to all federal, state and local government web resources and services.